Terug naar catalogus

APEX ARIES 1

ActiefWetenschapPO
NORAD 59129·PAYLOAD·🇺🇸 United States

Gelanceerd Mar 4, 2024 vanaf Vandenberg Space Force Base

Loading…

Volgende Passages (komende 24 uur)

TLE

VersSource: Space-Track

Epoch: Sep 14, 2026, 21:03 UTC

1 59129U 24043AH  26257.87761934  .00027094  00000-0  33798-3 0  9991
2 59129  97.5584  53.4729 0004246 220.4182 139.6759 15.59855894141882

Volg APEX ARIES 1 in realtime met AllMySat

Download on the App Store